KUIPER-00595

导读

KUIPER-00595(NORAD编号69280)是亚马逊低轨星座(原柯伊伯计划)的组网通信卫星,于2026年4月27日随美国联合发射联盟宇宙神5型火箭执行LA-06任务时,从卡纳维拉尔角太空军基地发射升空,属于该批次29颗组网星之一。 卫星运行于约630公里高度的低地球轨道,轨道倾角约51.9°,在轨运行周期约97分钟,搭载相控阵天线与星间激光链路,为全球网络服务不足区域提供高速低延迟宽带接入,是亚马逊构建全球卫星互联网星座的组成部分,截至2026年6月在轨运行状态正常。

Basic Information
目录编号:
69280
目录名称:
KUIPER-00595
国际标识:
2026-118P
轨道中心:
EARTH
卫星名称:
KUIPER-00595
卫星全名:
KUIPER-00595
卫星状态:
在轨 (已飞行60 天)
发射日期:
2026-05-29 UTC
国别 :
美国 (US)
星等 :
--
Orbit Information
数据来源 国际轨道数据
星历时间: 2026-07-27T17:47:39+0800
14小时前
查看轨道信息
半长轴: 6831.03km
偏心率: 0.0001646
轨道倾角: 51.869°
近地点辐角 37.443°
升交点赤经 218.495°
平近点角 322.667°
近地点: 451.768km
远地点: 454.018km
周期: 93.646分钟
每日圈数: 15.377066
Detailed Information
使用方式:
暂无
2D Orbit Map
3D Orbit Map
Orbit Altitude Analysis Chart
Orbit Inclination Analysis Chart
Orbit Comprehensive Analysis Chart
View Comprehensive Chart